Flag for U.S.A. Weather past 2 weeks in Kansas City, Missouri, U.S.A.

Now
70 °F

Overcast.


Feels Like: 72 °F
Forecast: 65 / 85 °F
Wind: 3 mph from Northwest

Location: Kansas City Downtown Airport

Current Time: Aug 1, 2014 at 7:24:06 AM

Latest Report: Aug 1, 2014 at 6:54 AM


Visibility: 10 mi

Pressure: 30.06 "Hg

Humidity: 76%

Dew point: 62 °F

Location of Kansas CityLocation

Historic Weather in Kansas City — Graph

°F

Kansas City temperature yesterday

Maximum temperature yesterday: 85 °F (at 4:54 PM)
Minimum temperature yesterday: 62 °F (at 5:54 AM)
Average temperature yesterday: 74 °F

Past Weeks' High & Low Weather Summary

 TemperatureHumidityPressure
High98 °F (Jul 25, 3:54 PM)90% (Jul 31, 5:54 AM)30.20 "Hg (Jul 31, 5:54 AM)
Low61 °F (Jul 17, 6:54 AM)29% (Jul 27, 3:54 PM)29.72 "Hg (Jul 25, 6:54 PM)
Average78 °F62%30.00 "Hg
* Reported Jul 17 5:54 AM — Aug 1 5:54 AM, Kansas City, Weather by CustomWeather, © 2014

Note: Actual official high and low records may vary slightly from our data, if they occured in-between our weather recording intervals... More about our weather records

Advertising

Kansas City weather history for previous 24 hours

 ConditionsComfort  
Time TempWeatherWind HumidityBarometerVisibility
5:54 AM
Aug 1
70 °FPassing clouds.No wind76%30.04 "Hg10 mi
4:54 AM71 °FPassing clouds.No wind71%30.04 "Hg10 mi
3:54 AM71 °FClear.No wind71%30.04 "Hg10 mi
2:54 AM72 °FOvercast.3 mph64%30.03 "Hg10 mi
1:54 AM72 °FClear.3 mph64%30.02 "Hg10 mi
12:54 AM72 °FClear.No wind64%30.03 "Hg10 mi
11:54 PM
Jul 31
73 °FClear.No wind62%30.03 "Hg10 mi
10:54 PM72 °FClear.No wind61%30.03 "Hg10 mi
9:54 PM75 °FClear.5 mph54%30.02 "Hg10 mi
8:54 PM78 °FSunny.5 mph46%30.01 "Hg10 mi
7:54 PM80 °FSunny.8 mph44%30.00 "Hg10 mi
6:54 PM82 °FSunny.7 mph41%30.01 "Hg10 mi
5:54 PM84 °FSunny.6 mph37%30.01 "Hg10 mi
4:54 PM85 °FPassing clouds.6 mph35%30.02 "Hg10 mi
3:54 PM84 °FSunny.No wind35%30.03 "Hg10 mi
2:54 PM84 °FPassing clouds.No wind36%30.05 "Hg10 mi
1:54 PM83 °FSunny.5 mph38%30.07 "Hg10 mi
12:54 PM80 °FScattered clouds.5 mph42%30.09 "Hg10 mi
11:54 AM79 °FPartly sunny.3 mph41%30.09 "Hg10 mi
10:54 AM78 °FSunny.3 mph52%30.09 "Hg10 mi
9:54 AM76 °FSunny.3 mph60%30.08 "Hg10 mi
8:54 AM71 °FSunny.No wind68%30.09 "Hg10 mi
7:54 AM66 °FSunny.No wind84%30.09 "Hg10 mi
Weather by CustomWeather, © 2014

See weather overviewHow to use our weather pages